• In Uzbekistan
  • List of Countries
  • For 7 days
  • Water Temperature
  • Satellite Maps
  • Weather Map
  • Weather Widgets
  • user-avatar
    Login

    Hourly Weather Prutz

    Today, 24 January, Tuesday

    Time Temperature Precipitation Wind Pressure Humidity
    00:00 -23°C° 0 mm 0 mps 622 mmHg 93%
    01:00 -23°C° 0 mm 0 mps 622 mmHg 88%
    02:00 -23°C° 0 mm 0 mps 622 mmHg 88%
    03:00 -23°C° 0 mm 0 mps 622 mmHg 88%
    04:00 -23°C° 0 mm 0 mps 622 mmHg 88%
    05:00 -23°C° 0 mm 0 mps 622 mmHg 89%
    06:00 -23°C° 0 mm 0 mps 623 mmHg 89%
    07:00 -22°C° 0 mm 1 mps 623 mmHg 91%
    08:00 -17°C° 0 mm 1 mps 626 mmHg 90%
    09:00 -12°C° 0 mm 0 mps 629 mmHg 89%
    10:00 -6°C° 0 mm 0 mps 631 mmHg 88%
    11:00 -5°C° 0 mm 0 mps 632 mmHg 89%
    12:00 -4°C° 0 mm 0 mps 632 mmHg 91%
    13:00 -3°C° 0 mm 0 mps 632 mmHg 92%
    14:00 -3°C° 0 mm 0 mps 632 mmHg 94%
    15:00 -4°C° 0 mm 0 mps 632 mmHg 95%
    16:00 -4°C° 0 mm 1 mps 631 mmHg 96%
    17:00 -8°C° 0 mm 0 mps 630 mmHg 97%
    18:00 -12°C° 0 mm 0 mps 629 mmHg 98%
    19:00 -15°C° 0 mm 0 mps 628 mmHg 98%
    20:00 -17°C° 0 mm 0 mps 627 mmHg 98%
    21:00 -19°C° 0 mm 1 mps 626 mmHg 98%
    22:00 -21°C° 0 mm 1 mps 625 mmHg 98%
    23:00 -21°C° 0 mm 1 mps 625 mmHg 97%

    Tomorrow, 25 January, Wednesday

    Time Temperature Precipitation Wind Pressure Humidity
    00:00 -21°C° 0 mm 1 mps 625 mmHg 96%
    01:00 -21°C° 0 mm 1 mps 625 mmHg 95%
    02:00 -21°C° 0 mm 1 mps 625 mmHg 92%
    03:00 -20°C° 0 mm 1 mps 626 mmHg 88%
    04:00 -20°C° 0 mm 1 mps 626 mmHg 85%
    05:00 -18°C° 0 mm 1 mps 627 mmHg 84%
    06:00 -17°C° 0 mm 1 mps 627 mmHg 83%
    07:00 -15°C° 0 mm 1 mps 628 mmHg 82%
    08:00 -12°C° 0 mm 1 mps 630 mmHg 85%
    09:00 -8°C° 0 mm 1 mps 632 mmHg 87%
    10:00 -4°C° 0 mm 1 mps 634 mmHg 90%
    11:00 -2°C° 0 mm 1 mps 634 mmHg 91%
    12:00 -1°C° 0 mm 1 mps 634 mmHg 92%
    13:00 +1°C° 0 mm 1 mps 634 mmHg 93%
    14:00 0°C° 0 mm 1 mps 634 mmHg 94%
    15:00 -1°C° 0 mm 1 mps 634 mmHg 94%
    16:00 -1°C° 0 mm 1 mps 633 mmHg 95%
    17:00 -4°C° 0 mm 1 mps 632 mmHg 95%
    18:00 -8°C° 0 mm 1 mps 631 mmHg 94%
    19:00 -11°C° 0 mm 1 mps 630 mmHg 94%
    20:00 -11°C° 0 mm 1 mps 630 mmHg 93%
    21:00 -14°C° 0 mm 2 mps 630 mmHg 92%
    22:00 -14°C° 0 mm 2 mps 631 mmHg 91%
    23:00 -13°C° 0 mm 2 mps 631 mmHg 90%

    Day after tomorrow, 26 January, Thursday

    Time Temperature Precipitation Wind Pressure Humidity
    00:00 -13°C° 0 mm 2 mps 631 mmHg 89%
    01:00 -13°C° 0 mm 2 mps 631 mmHg 88%
    02:00 -13°C° 0 mm 2 mps 631 mmHg 88%
    03:00 -12°C° 0 mm 2 mps 631 mmHg 88%
    04:00 -12°C° 0 mm 2 mps 631 mmHg 87%
    05:00 -12°C° 0 mm 2 mps 631 mmHg 87%
    06:00 -12°C° 0 mm 2 mps 631 mmHg 87%
    07:00 -12°C° 0 mm 2 mps 630 mmHg 87%
    08:00 -9°C° 0 mm 2 mps 631 mmHg 88%
    09:00 -7°C° 0 mm 2 mps 632 mmHg 89%
    10:00 -5°C° 0 mm 2 mps 633 mmHg 90%
    11:00 -3°C° 0 mm 2 mps 633 mmHg 91%
    12:00 -2°C° 0 mm 2 mps 633 mmHg 93%
    13:00 +2°C° 0 mm 1 mps 634 mmHg 94%
    14:00 +1°C° 0 mm 1 mps 633 mmHg 94%
    15:00 0°C° 0 mm 1 mps 633 mmHg 94%
    16:00 -1°C° 0 mm 1 mps 632 mmHg 95%
    17:00 -5°C° 0 mm 2 mps 632 mmHg 94%
    18:00 -7°C° 0 mm 2 mps 632 mmHg 94%
    19:00 -9°C° 0 mm 2 mps 631 mmHg 93%
    20:00 -9°C° 0 mm 2 mps 631 mmHg 93%
    21:00 -10°C° 0 mm 3 mps 631 mmHg 93%
    22:00 -10°C° 0 mm 3 mps 631 mmHg 92%
    23:00 -10°C° 0 mm 3 mps 631 mmHg 92%

    27 January, Friday

    Time Temperature Precipitation Wind Pressure Humidity
    00:00 -10°C° 0 mm 3 mps 631 mmHg 92%
    01:00 -12°C° 0 mm 3 mps 631 mmHg 91%
    02:00 -12°C° 0 mm 3 mps 631 mmHg 91%
    03:00 -12°C° 0 mm 3 mps 631 mmHg 91%
    04:00 -12°C° 0 mm 3 mps 631 mmHg 91%
    05:00 -12°C° 0 mm 3 mps 631 mmHg 91%
    06:00 -12°C° 0 mm 3 mps 631 mmHg 91%
    07:00 -12°C° 0 mm 3 mps 632 mmHg 91%
    08:00 -9°C° 0 mm 3 mps 632 mmHg 92%
    09:00 -8°C° 0 mm 3 mps 633 mmHg 92%
    10:00 -5°C° 0 mm 2 mps 634 mmHg 93%
    11:00 -4°C° 0 mm 2 mps 634 mmHg 93%
    12:00 -2°C° 0 mm 2 mps 634 mmHg 94%
    13:00 -1°C° 0 mm 2 mps 634 mmHg 94%
    14:00 -1°C° 0 mm 2 mps 634 mmHg 94%
    15:00 -1°C° 0 mm 2 mps 634 mmHg 94%
    16:00 -2°C° 0 mm 2 mps 634 mmHg 94%
    17:00 -3°C° 0 mm 2 mps 633 mmHg 94%
    18:00 -4°C° 0 mm 2 mps 633 mmHg 94%
    19:00 -6°C° 0 mm 2 mps 633 mmHg 94%
    20:00 -6°C° 0 mm 2 mps 633 mmHg 94%
    21:00 -6°C° 0 mm 2 mps 633 mmHg 94%
    22:00 -6°C° 0 mm 2 mps 633 mmHg 94%
    23:00 -7°C° 0 mm 2 mps 633 mmHg 94%

    28 January, Saturday

    Time Temperature Precipitation Wind Pressure Humidity
    00:00 -7°C° 0 mm 2 mps 633 mmHg 94%
    01:00 -7°C° 0 mm 2 mps 632 mmHg 94%
    02:00 -7°C° 0 mm 2 mps 632 mmHg 94%
    03:00 -7°C° 0 mm 2 mps 632 mmHg 94%
    04:00 -7°C° 0 mm 2 mps 632 mmHg 95%
    05:00 -7°C° 0 mm 2 mps 632 mmHg 95%
    06:00 -7°C° 0 mm 2 mps 632 mmHg 95%
    07:00 -7°C° 0 mm 2 mps 632 mmHg 95%
    08:00 -6°C° 0 mm 2 mps 633 mmHg 95%
    09:00 -4°C° 0 mm 2 mps 634 mmHg 94%
    10:00 -3°C° 0 mm 2 mps 634 mmHg 94%
    11:00 -2°C° 0 mm 2 mps 635 mmHg 95%
    12:00 +1°C° 0 mm 1 mps 635 mmHg 95%
    13:00 +3°C° 0 mm 1 mps 635 mmHg 96%
    14:00 +2°C° 0 mm 1 mps 635 mmHg 95%
    15:00 +2°C° 0 mm 1 mps 635 mmHg 95%
    16:00 +2°C° 0 mm 1 mps 634 mmHg 95%
    17:00 -2°C° 0 mm 1 mps 633 mmHg 96%
    18:00 -6°C° 0 mm 1 mps 632 mmHg 97%
    19:00 -10°C° 0 mm 1 mps 631 mmHg 98%
    20:00 -9°C° 0 mm 1 mps 631 mmHg 97%
    21:00 -8°C° 0 mm 1 mps 632 mmHg 96%
    22:00 -8°C° 0 mm 1 mps 632 mmHg 96%
    23:00 -8°C° 0 mm 1 mps 632 mmHg 96%

    29 January, Sunday

    Time Temperature Precipitation Wind Pressure Humidity
    00:00 -8°C° 0 mm 1 mps 632 mmHg 95%
    01:00 -9°C° 0 mm 1 mps 632 mmHg 95%
    02:00 -9°C° 0 mm 1 mps 632 mmHg 95%
    03:00 -10°C° 0 mm 1 mps 632 mmHg 95%
    04:00 -10°C° 0 mm 1 mps 632 mmHg 95%
    05:00 -10°C° 0 mm 1 mps 632 mmHg 95%
    06:00 -10°C° 0 mm 1 mps 632 mmHg 95%
    07:00 -10°C° 0 mm 1 mps 632 mmHg 95%
    08:00 -7°C° 0 mm 1 mps 634 mmHg 94%
    09:00 -3°C° 0 mm 1 mps 635 mmHg 94%
    10:00 0°C° 0 mm 1 mps 636 mmHg 94%
    11:00 0°C° 0 mm 0 mps 636 mmHg 94%
    12:00 +1°C° 0 mm 0 mps 636 mmHg 94%
    13:00 +2°C° 0 mm 0 mps 636 mmHg 94%
    14:00 +1°C° 0 mm 0 mps 636 mmHg 94%
    15:00 0°C° 0 mm 0 mps 635 mmHg 95%
    16:00 0°C° 0 mm 0 mps 635 mmHg 95%
    17:00 -3°C° 0 mm 0 mps 634 mmHg 96%
    18:00 -7°C° 0 mm 0 mps 632 mmHg 97%
    19:00 -10°C° 0 mm 0 mps 631 mmHg 98%
    20:00 -9°C° 0 mm 1 mps 631 mmHg 96%
    21:00 -8°C° 0 mm 1 mps 632 mmHg 95%
    22:00 -6°C° 0 mm 1 mps 633 mmHg 94%
    23:00 -6°C° 0 mm 1 mps 633 mmHg 94%
    Show more